This is the latest recevied weather packets stored in our database for station/object WD4DAN-13. If no packets are shown the sender has not sent any weather packets the latest 1 day(s).
| Time | Temp. | Humidity | Pressure | Rain* | Wind** | Luminosity | Snow |
|---|---|---|---|---|---|---|---|
| 1778030788 | 22.78° C | 70% | - | 0 mm | 0 m/s | - | - |
| 1778030484 | 22.78° C | 69% | - | 0 mm | 0.45 m/s, 294° | - | - |
| 1778030182 | 22.78° C | 68% | - | 0 mm | 1.34 m/s, 266° | - | - |
| 1778029878 | 23.33° C | 67% | - | 0 mm | 0.45 m/s, 285° | - | - |
| 1778029577 | 23.33° C | 67% | - | 0 mm | 0 m/s | - | - |
| 1778029274 | 23.33° C | 66% | - | 0 mm | 0 m/s | - | - |
| 1778028971 | 23.33° C | 65% | - | 0 mm | 0.89 m/s, 291° | - | - |
| 1778028667 | 23.89° C | 65% | - | 0 mm | 0 m/s | - | - |
| 1778028364 | 23.89° C | 64% | - | 0 mm | 0 m/s | - | - |
| 1778028061 | 23.89° C | 63% | - | 0 mm | 1.34 m/s, 292° | - | - |
| 1778027757 | 24.44° C | 62% | - | 0 mm | 0.89 m/s, 291° | - | - |
| 1778027453 | 24.44° C | 61% | - | 0 mm | 0 m/s | - | - |
| 1778027149 | 25° C | 60% | - | 0 mm | 0.89 m/s, 292° | - | - |
| 1778026845 | 25° C | 60% | - | 0 mm | 0 m/s | - | - |
| 1778026542 | 25° C | 59% | - | 0 mm | 0.89 m/s, 290° | - | - |
| 1778026239 | 25.56° C | 58% | - | 0 mm | 0 m/s | - | - |
| 1778025936 | 25.56° C | 58% | - | 0 mm | 0.89 m/s, 250° | - | - |
| 1778025634 | 25.56° C | 57% | - | 0 mm | 1.34 m/s, 307° | - | - |
| 1778025331 | 26.11° C | 57% | - | 0 mm | 0.45 m/s, 346° | - | - |
| 1778025028 | 26.11° C | 56% | - | 0 mm | 0.45 m/s, 23° | - | - |
| 1778024725 | 26.67° C | 55% | - | 0 mm | 1.34 m/s, 334° | - | - |
| 1778024422 | 26.67° C | 55% | - | 0 mm | 0 m/s | - | - |
| 1778024119 | 26.67° C | 54% | - | 0 mm | 1.79 m/s, 267° | - | - |
| 1778023817 | 26.67° C | 54% | - | 0 mm | 1.34 m/s, 329° | - | - |
| 1778023514 | 27.22° C | 53% | - | 0 mm | 0.89 m/s, 270° | - | - |
* Rain latest hour (hover to see other rain measurements)
** Current wind speed in m/s (hover to see current wind gust speed)